Location: Shenandoah County Park
(38.9356°N, 78.4524°W)
Time: 05:58:26
(UTC-05:00)

Vanguard 3 - Visible Passes

Search period start: 31 January 2023 00:00
Search period end: 10 February 2023 00:00
Orbit: 509 x 3252 km, 33.4° (Epoch: 30 January)

Date Brightness Start Highest point End Pass type
(mag) Time Alt. Az. Time Alt. Az. Time Alt. Az.
31 Jan 11.3 02:06:58 12° SSE 02:06:58 12° SSE 02:07:47 10° SE visible
31 Jan 11.0 04:11:27 14° SSW 04:11:27 14° SSW 04:14:43 10° SSW visible
31 Jan 9.8 17:42:56 10° S 17:49:52 27° SE 18:00:20 10° E visible
31 Jan 9.3 19:51:34 10° WSW 20:01:52 60° SSE 20:07:09 44° ESE visible
31 Jan 9.9 22:03:03 10° W 22:11:36 51° WSW 22:11:36 51° WSW visible
01 Feb11.300:56:04SE00:56:04SE00:16:03Wvisible
01 Feb 11.1 03:00:31 14° S 03:00:31 14° S 03:02:23 10° SSE visible
01 Feb 9.4 18:37:28 10° SW 18:45:47 45° SSE 18:56:01 19° E visible
01 Feb 9.3 20:47:46 10° WSW 20:59:15 70° S 21:00:28 68° SSE visible
01 Feb 10.5 23:00:02 10° W 23:04:55 29° W 23:04:55 29° W visible
02 Feb 9.2 19:33:03 10° WSW 19:42:29 61° SSE 19:49:19 36° E visible
02 Feb 9.6 21:44:20 10° W 21:53:45 59° WSW 21:53:45 59° WSW visible
02 Feb 11.1 23:57:18 10° W 23:58:12 13° W 23:58:12 13° W visible
03 Feb 9.2 18:18:57 10° SW 18:26:34 46° SSE 18:38:09 13° E visible
03 Feb 9.2 20:29:12 10° WSW 20:39:47 70° S 20:42:36 60° SE visible
03 Feb 10.3 22:41:11 10° W 22:47:02 34° W 22:47:02 34° W visible
04 Feb11.601:31:59SSE01:31:59SSE00:51:29Wvisible
04 Feb 9.1 19:14:35 10° WSW 19:23:13 62° SSE 19:31:25 29° E visible
04 Feb 9.4 21:25:41 10° W 21:35:52 65° SW 21:35:52 65° SW visible
04 Feb 10.9 23:38:22 10° W 23:40:18 16° W 23:40:18 16° W visible
05 Feb 9.0 18:00:31 10° SW 18:07:27 47° SSE 18:19:33 10° E visible
05 Feb 9.1 20:10:43 10° WSW 20:20:25 69° S 20:24:41 51° ESE visible
05 Feb 10.1 22:22:26 10° W 22:29:08 40° WSW 22:29:08 40° WSW visible
06 Feb 8.9 18:56:11 10° WSW 19:04:04 62° SSE 19:13:31 22° E visible
06 Feb 9.3 21:07:07 10° W 21:17:55 66° S 21:17:57 66° S visible
06 Feb 10.8 23:19:34 10° W 23:22:24 20° W 23:22:24 20° W visible
07 Feb 9.0 19:52:17 10° W 20:01:09 67° S 20:06:48 41° ESE visible
07 Feb 9.9 22:03:46 10° W 22:11:14 44° WSW 22:11:14 44° WSW visible
08 Feb 8.7 18:37:50 10° WSW 18:45:00 62° S 18:55:39 16° E visible
08 Feb 9.2 20:48:36 10° W 20:58:29 62° S 21:00:06 59° SSE visible
08 Feb 10.6 23:00:52 10° W 23:04:32 23° WSW 23:04:32 23° WSW visible
09 Feb 8.9 19:33:52 10° W 19:41:58 65° S 19:48:59 32° ESE visible
09 Feb 9.7 21:45:12 10° W 21:53:26 47° SW 21:53:26 47° SW visible
